"2016-02-03 00:00:00",1340571,6.078,43.31,8.09,1.398,-0.549,96.79121,-8.87,-7.561,79.6,0,109.2,13.5,-8.15,5.3
"2016-02-03 00:00:30",1340572,4.738,42.09,7.311,1.316,-0.518,96.79176,-8.87,-7.559,79.66,0,109.2,13.5,-8.15,4.1
"2016-02-03 00:01:00",1340573,5.773,46.39,7.224,1.491,-0.692,96.79203,-8.87,-7.587,79.68,0,109.2,13.5,-8.15,8.4
"2016-02-03 00:01:30",1340574,6.788,50.86,7.379,1.247,-0.602,96.79149,-8.87,-7.548,79.75,0,109.2,13.5,-8.15,12.9
"2016-02-03 00:02:00",1340575,5.065,44.53,6.65,1.185,-0.713,96.78976,-8.87,-7.554,79.72,0,109.2,13.5,-8.15,6.5
"2016-02-03 00:02:30",1340576,5.083,42.36,7.908,1.238,-0.614,96.78432,-8.89,-7.598,79.75,0,109.2,13.5,-8.17,4.4
"2016-02-03 00:03:00",1340577,4.755,44.96,9.6,1.478,-0.542,96.77692,-8.91,-7.586,79.82,0,109.2,13.5,-8.19,7.0
"2016-02-03 00:03:30",1340578,4.389,40.59,6.945,1.161,-1.216,96.7766,-8.91,-7.593,79.85,0,109.2,13.5,-8.19,2.6
"2016-02-03 00:04:00",1340579,5.023,44.36,8.06,1.245,-0.86,96.7766,-8.91,-7.59,79.88,0,109.2,13.5,-8.19,6.4
"2016-02-03 00:04:30",1340580,4.936,42.16,7.905,1.256,-0.979,96.76981,-8.92,-7.584,79.94,0,109.2,13.5,-8.20,4.2
"2016-02-03 00:05:00",1340581,4.581,42.92,6.797,1.185,-1.211,96.7681,-8.93,-7.593,79.94,0,109.2,13.5,-8.21,4.9
"2016-02-03 00:05:30",1340582,4.295,40.18,8.74,1.201,-0.961,96.76604,-8.93,-7.603,79.99,0,109.2,13.5,-8.21,2.2
"2016-02-03 00:06:00",1340583,3.734,36.61,7.095,1.204,-1.724,96.76322,-8.94,-7.657,79.97,0,109.2,13.5,-8.22,358.6
"2016-02-03 00:06:30",1340584,3.851,42.1,6.76,1.182,-2.71,96.76321,-8.94,-7.66,80,0,109.2,13.5,-8.22,4.1
"2016-02-03 00:07:00",1340585,3.465,33.52,7.365,1.413,-3.295,96.76485,-8.94,-7.754,79.99,0,109.2,13.5,-8.22,355.5
"2016-02-03 00:07:30",1340586,4.103,39.67,7.76,1.652,-2.758,96.76513,-8.94,-7.704,80.1,0,109.2,13.51,-8.22,1.7
"2016-02-03 00:08:00",1340587,6.072,52.8,7.015,1.376,-0.721,96.76513,-8.94,-7.637,80.2,0,109.2,13.51,-8.22,14.8
"2016-02-03 00:08:30",1340588,6.469,49.28,6.879,1.156,-0.296,96.76427,-8.94,-7.627,80.2,0,109.2,13.51,-8.22,11.3
"2016-02-03 00:09:00",1340589,5.805,46.35,6.437,1.301,-0.464,96.75292,-8.97,-7.647,80.2,0,109.2,13.51,-8.25,8.3
"2016-02-03 00:09:30",1340590,5.43,43.11,7.104,1.295,-0.337,96.74838,-8.98,-7.657,80.2,0,109.2,13.51,-8.26,5.1
"2016-02-03 00:10:00",1340591,5.515,41.29,7.38,1.451,-0.125,96.74838,-8.98,-7.645,80.2,0,109.2,13.51,-8.26,3.3
"2016-02-03 00:10:30",1340592,5.889,48.29,7.209,1.326,-0.161,96.74838,-8.98,-7.652,80.2,0,109.2,13.51,-8.26,10.3
"2016-02-03 00:11:00",1340593,5.467,43.23,7.654,1.252,-0.349,96.7427,-8.99,-7.632,80.2,0,109.2,13.51,-8.27,5.2
"2016-02-03 00:11:30",1340594,5.111,41.66,6.569,1.14,-0.732,96.73959,-9,-7.636,80.1,0,109.2,13.51,-8.28,3.7
"2016-02-03 00:12:00",1340595,5.286,39.16,7.612,1.298,-0.887,96.7393,-9,-7.679,80.1,0,109.2,13.51,-8.28,1.2
"2016-02-03 00:12:30",1340596,5.462,42.01,7.828,1.19,-0.795,96.73674,-9.01,-7.67,80.2,0,109.2,13.51,-8.29,4.0
"2016-02-03 00:13:00",1340597,4.509,40.18,7.409,1.277,-0.713,96.73363,-9.02,-7.688,80.3,0,109.2,13.51,-8.30,2.2
"2016-02-03 00:13:30",1340598,4.952,41.36,6.538,1.208,-0.649,96.73135,-9.02,-7.685,80.3,0,109.2,13.51,-8.30,3.4
"2016-02-03 00:14:00",1340599,5.322,41.2,6.465,1.286,-0.808,96.73135,-9.02,-7.664,80.3,0,109.2,13.51,-8.30,3.2
"2016-02-03 00:14:30",1340600,5.535,43.55,6.76,1.241,-0.765,96.73135,-9.02,-7.663,80.4,0,109.2,13.51,-8.30,5.5
"2016-02-03 00:15:00",1340601,5.361,41.15,8.19,1.222,-1.018,96.73135,-9.02,-7.688,80.4,0,109.1,13.51,-8.30,3.2
"2016-02-03 00:15:30",1340602,4.785,33.25,8.8,1.275,-1.197,96.73135,-9.02,-7.694,80.5,0,109.2,13.51,-8.30,355.2
"2016-02-03 00:16:00",1340603,4.9,42.04,8.04,1.286,-1.313,96.73164,-9.02,-7.697,80.5,0,109.2,13.51,-8.30,4.0
"2016-02-03 00:16:30",1340604,4.239,38.69,6.63,1.313,-0.997,96.73135,-9.02,-7.687,80.5,0,109.2,13.51,-8.30,0.7
"2016-02-03 00:17:00",1340605,5.055,42.05,7.986,1.488,-1.423,96.73161,-9.02,-7.729,80.6,0,109.2,13.51,-8.30,4.0
"2016-02-03 00:17:30",1340606,4.187,35.74,7.193,1.232,-2.598,96.72368,-9.04,-7.762,80.5,0,109.2,13.51,-8.32,357.7
"2016-02-03 00:18:00",1340607,4.47,34.52,8.47,1.192,-1.85,96.71971,-9.05,-7.809,80.5,0,109.2,13.51,-8.33,356.5
"2016-02-03 00:18:30",1340608,4.572,34.76,7.499,1.316,-2.083,96.71431,-9.07,-7.784,80.5,0,109.1,13.51,-8.35,356.8
"2016-02-03 00:19:00",1340609,4.657,37.15,7.791,1.245,-1.276,96.7134,-9.07,-7.73,80.5,0,109.1,13.51,-8.35,359.1
"2016-02-03 00:19:30",1340610,4.852,42.49,6.451,1.365,-0.87,96.71142,-9.07,-7.75,80.5,0,109.1,13.51,-8.35,4.5
"2016-02-03 00:20:00",1340611,4.645,41.12,7.474,1.42,-0.948,96.70634,-9.09,-7.75,80.5,0,109.1,13.51,-8.37,3.1
"2016-02-03 00:20:30",1340612,4.525,36.51,8.52,1.222,-0.628,96.70818,-9.08,-7.727,80.4,0,109.1,13.51,-8.36,358.5
"2016-02-03 00:21:00",1340613,4.239,32.07,8.53,1.41,-1.033,96.70555,-9.09,-7.758,80.4,0,109.1,13.51,-8.37,354.1
"2016-02-03 00:21:30",1340614,3.91,30.66,7.005,1.342,-1.449,96.70473,-9.09,-7.774,80.4,0,109.1,13.51,-8.37,352.7
"2016-02-03 00:22:00",1340615,3.45,30.41,13.49,1.381,-1.157,96.70609,-9.09,-7.755,80.5,0,109.1,13.51,-8.37,352.4
"2016-02-03 00:22:30",1340616,3.894,34.94,9.62,1.281,-2.768,96.70718,-9.08,-7.881,80.4,0,109.1,13.51,-8.36,356.9
"2016-02-03 00:23:00",1340617,4.318,36.99,9.27,1.317,-1.915,96.70965,-9.08,-7.772,80.5,0,109.1,13.51,-8.36,359.0
"2016-02-03 00:23:30",1340618,4.543,42.31,7.704,1.626,-1.664,96.7135,-9.07,-7.767,80.6,0,109.1,13.52,-8.35,4.3
"2016-02-03 00:24:00",1340619,4.276,41.59,8.07,1.422,-1.074,96.71569,-9.06,-7.775,80.5,0,109.1,13.52,-8.34,3.6
"2016-02-03 00:24:30",1340620,5.385,42.38,7.406,1.542,-0.488,96.72009,-9.05,-7.752,80.6,0,109.1,13.52,-8.33,4.4
"2016-02-03 00:25:00",1340621,4.543,34.48,8.81,1.28,-0.55,96.71897,-9.05,-7.749,80.5,0,109.1,13.52,-8.33,356.5
"2016-02-03 00:25:30",1340622,3.802,36.68,7.851,1.275,-0.748,96.71834,-9.05,-7.754,80.5,0,109.1,13.52,-8.33,358.7
"2016-02-03 00:26:00",1340623,3.542,31.84,7.812,1.18,-0.795,96.7135,-9.07,-7.775,80.5,0,109.1,13.52,-8.35,353.8
"2016-02-03 00:26:30",1340624,3.703,26.9,8.33,1.307,-1.788,96.70729,-9.08,-7.833,80.4,0,109.1,13.52,-8.36,348.9
"2016-02-03 00:27:00",1340625,3.359,24.62,9.02,0.937,-4.525,96.7053,-9.09,-7.967,80.3,0,109.1,13.52,-8.37,346.6
"2016-02-03 00:27:30",1340626,3.171,26.73,7.409,1.176,-3.545,96.70415,-9.09,-7.938,80.4,0,109.1,13.53,-8.37,348.7
"2016-02-03 00:28:00",1340627,3.288,25.26,7.02,1.329,-2.057,96.70442,-9.09,-7.841,80.6,0,109.1,13.53,-8.37,347.3
"2016-02-03 00:28:30",1340628,2.787,20.51,16.26,1.317,-0.583,96.70299,-9.09,-7.789,80.6,0,109.1,13.53,-8.37,342.5
"2016-02-03 00:29:00",1340629,2.439,21.7,10.56,1.442,-1.297,96.70016,-9.1,-7.807,80.6,0,109.1,13.53,-8.38,343.7
"2016-02-03 00:29:30",1340630,2.974,32.15,9.83,1.528,-2.479,96.69958,-9.1,-7.806,80.6,0,109.1,13.53,-8.38,354.1
"2016-02-03 00:30:00",1340631,1.484,24.19,3.067,0.198,-5.005,96.69646,-9.11,-8.03,80.3,0,109.1,13.57,-8.39,346.2
"2016-02-03 00:30:30",1340632,3.15,28.47,5.092,1.154,-2.275,96.69533,-9.11,-7.885,80.5,0,109.1,13.53,-8.39,350.5
"2016-02-03 00:31:00",1340633,4.163,36.89,10.77,1.723,-1.883,96.69389,-9.12,-7.856,80.6,0,109.1,13.53,-8.40,358.9
"2016-02-03 00:31:30",1340634,4.564,38.49,7.165,1.263,-0.586,96.68907,-9.13,-7.793,80.7,0,109.1,13.53,-8.41,0.5
"2016-02-03 00:32:00",1340635,4.364,39.99,8.95,1.404,-0.912,96.68905,-9.13,-7.849,80.7,0,109.1,13.53,-8.41,2.0
"2016-02-03 00:32:30",1340636,5.215,43.23,8.82,1.33,-1.082,96.68849,-9.13,-7.8,80.7,0,109.1,13.53,-8.41,5.2
"2016-02-03 00:33:00",1340637,6.209,41.74,7.763,1.46,-0.244,96.68822,-9.13,-7.813,80.7,0,109.1,13.53,-8.41,3.7
"2016-02-03 00:33:30",1340638,5.499,30.11,12.76,1.423,-0.405,96.68733,-9.13,-7.799,80.6,0,109.1,13.53,-8.41,352.1
"2016-02-03 00:34:00",1340639,5.88,39.98,7.553,1.359,-0.842,96.68112,-9.15,-7.813,80.5,0,109.1,13.53,-8.43,2.0
"2016-02-03 00:34:30",1340640,5.409,30.03,7.96,1.395,-0.585,96.67821,-9.16,-7.835,80.4,0,109.1,13.53,-8.44,352.0
"2016-02-03 00:35:00",1340641,4.186,23.39,11.14,1.576,-0.843,96.67423,-9.17,-7.846,80.3,0,109.1,13.52,-8.45,345.4
"2016-02-03 00:35:30",1340642,4.415,30.79,11.03,1.49,-1.188,96.67448,-9.17,-7.846,80.3,0,109.1,13.52,-8.45,352.8
"2016-02-03 00:36:00",1340643,5.691,40.61,7.315,1.136,-1.035,96.6728,-9.17,-7.843,80.3,0,109.1,13.52,-8.45,2.6
"2016-02-03 00:36:30",1340644,6.333,40.34,8.07,1.168,-0.67,96.6753,-9.16,-7.844,80.3,0,109.1,13.52,-8.44,2.3
"2016-02-03 00:37:00",1340645,5.397,35.3,7.546,1.682,-1.069,96.67467,-9.17,-7.846,80.3,0,109.1,13.52,-8.45,357.3
"2016-02-03 00:37:30",1340646,5.05,24.25,10.34,1.369,-1.004,96.67554,-9.16,-7.855,80.3,0,109.1,13.52,-8.44,346.2
"2016-02-03 00:38:00",1340647,3.556,18.06,13.79,1.341,-1.24,96.67579,-9.16,-7.867,80.3,0,109.1,13.52,-8.44,340.1
"2016-02-03 00:38:30",1340648,4.498,30.58,7.967,1.394,-1.731,96.67667,-9.16,-7.884,80.3,0,109.1,13.52,-8.44,352.6
"2016-02-03 00:39:00",1340649,5.403,34.75,7.372,1.324,-2.399,96.6758,-9.16,-7.909,80.3,0,109.1,13.52,-8.44,356.8
"2016-02-03 00:39:30",1340650,4.939,43.13,8.74,1.405,-1.203,96.67776,-9.16,-7.885,80.3,0,109.1,13.52,-8.44,5.1
"2016-02-03 00:40:00",1340651,4.699,38.29,9.93,1.661,-1.603,96.67716,-9.16,-7.959,80.3,0,109.1,13.52,-8.44,0.3
"2016-02-03 00:40:30",1340652,4.813,39.28,7.12,1.322,-1,96.67774,-9.16,-7.868,80.2,0,109.1,13.53,-8.44,1.3
"2016-02-03 00:41:00",1340653,6.052,45.98,7.044,1.242,-0.193,96.67606,-9.16,-7.869,80.1,0,109.1,13.53,-8.44,8.0
"2016-02-03 00:41:30",1340654,5.056,37.9,7.184,1.276,-0.539,96.67773,-9.16,-7.831,80,0,109.1,13.53,-8.44,359.9
"2016-02-03 00:42:00",1340655,5.187,41.06,7.908,1.181,-0.168,96.67801,-9.16,-7.853,79.91,0,109.1,13.53,-8.44,3.1
"2016-02-03 00:42:30",1340656,4.694,33.87,9.85,1.392,-0.995,96.67773,-9.16,-7.857,79.87,0,109.1,13.53,-8.44,355.9
"2016-02-03 00:43:00",1340657,5.075,47.09,11.2,1.511,-0.888,96.6783,-9.16,-7.873,79.83,0,109.1,13.53,-8.44,9.1
"2016-02-03 00:43:30",1340658,5.602,44.56,8.13,1.211,-0.868,96.67801,-9.16,-7.858,79.85,0,109.1,13.53,-8.44,6.6
"2016-02-03 00:44:00",1340659,6.329,45.07,8.49,1.518,-0.48,96.6783,-9.16,-7.844,79.85,0,109.1,13.53,-8.44,7.1
"2016-02-03 00:44:30",1340660,6.933,46.71,7.38,1.232,-0.245,96.67745,-9.16,-7.867,79.82,0,109.1,13.53,-8.44,8.7
"2016-02-03 00:45:00",1340661,6.457,48.13,7.357,1.512,-0.133,96.67886,-9.16,-7.851,79.76,0,109.1,13.53,-8.44,10.1
"2016-02-03 00:45:30",1340662,5.806,50.55,7.186,1.298,-0.444,96.68426,-9.14,-7.819,79.69,0,109.1,13.53,-8.42,12.5
"2016-02-03 00:46:00",1340663,5.205,47.95,7.737,1.23,-0.123,96.68909,-9.13,-7.84,79.61,0,109.1,13.53,-8.41,10.0
"2016-02-03 00:46:30",1340664,4.813,33.07,6.6,1.176,-0.635,96.69249,-9.12,-7.831,79.57,0,109.1,13.53,-8.40,355.1
"2016-02-03 00:47:00",1340665,5.335,38.43,12.92,1.43,-1.041,96.69505,-9.11,-7.843,79.57,0,109.1,13.53,-8.39,0.4
"2016-02-03 00:47:30",1340666,3.671,25.54,12.77,1.303,-1.006,96.6959,-9.11,-7.845,79.59,0,109.1,13.53,-8.39,347.5
"2016-02-03 00:48:00",1340667,4.103,35.67,7.513,1.368,-1.242,96.69617,-9.11,-7.833,79.6,0,109.1,13.53,-8.39,357.7
"2016-02-03 00:48:30",1340668,4.877,42.57,7.968,1.435,-1.752,96.69617,-9.11,-7.859,79.6,0,109.1,13.53,-8.39,4.6
"2016-02-03 00:49:00",1340669,6.962,44.83,6.962,1.24,-1.325,96.69617,-9.11,-7.862,79.66,0,109.1,13.53,-8.39,6.8
"2016-02-03 00:49:30",1340670,6.738,50.85,8.33,1.246,-0.834,96.69617,-9.11,-7.802,79.72,0,109.1,13.53,-8.39,12.8
"2016-02-03 00:50:00",1340671,5.346,52.87,8.56,1.327,-1.071,96.69617,-9.11,-7.832,79.68,0,109.1,13.53,-8.39,14.9
"2016-02-03 00:50:30",1340672,4.991,43.32,6.803,1.372,-0.648,96.69617,-9.11,-7.839,79.68,0,109.1,13.53,-8.39,5.3
"2016-02-03 00:51:00",1340673,4.891,38.83,8.31,1.218,-0.938,96.69617,-9.11,-7.813,79.7,0,109.1,13.53,-8.39,0.8
"2016-02-03 00:51:30",1340674,5.629,46.4,7.822,1.4,-0.973,96.69617,-9.11,-7.815,79.68,0,109.1,13.53,-8.39,8.4
"2016-02-03 00:52:00",1340675,5.142,46.05,7.584,1.339,-0.727,96.69617,-9.11,-7.817,79.66,0,109.1,13.53,-8.39,8.0
"2016-02-03 00:52:30",1340676,4.809,42.8,9.23,1.298,-0.672,96.69617,-9.11,-7.792,79.59,0,109.1,13.53,-8.39,4.8
"2016-02-03 00:53:00",1340677,5.761,47.62,8.36,1.317,-0.837,96.69617,-9.11,-7.816,79.54,0,109.1,13.53,-8.39,9.6
"2016-02-03 00:53:30",1340678,4.797,36.05,6.987,1.18,-0.97,96.69617,-9.11,-7.811,79.46,0,109.1,13.52,-8.39,358.0
"2016-02-03 00:54:00",1340679,4.417,39.26,6.737,1.104,-1.14,96.69617,-9.11,-7.824,79.42,0,109.1,13.52,-8.39,1.3
"2016-02-03 00:54:30",1340680,6.083,42.04,8.28,1.71,-1.063,96.69617,-9.11,-7.83,79.38,0,109.1,13.52,-8.39,4.0
"2016-02-03 00:55:00",1340681,6.81,46.58,7.536,1.496,-0.509,96.69617,-9.11,-7.813,79.34,0,109.1,13.52,-8.39,8.6
"2016-02-03 00:55:30",1340682,5.656,46.78,8.11,1.943,-0.328,96.69617,-9.11,-7.789,79.16,0,109.1,13.52,-8.39,8.8
"2016-02-03 00:56:00",1340683,5.047,36.81,8.9,1.364,-0.716,96.69617,-9.11,-7.826,78.89,0,109.1,13.52,-8.39,358.8
"2016-02-03 00:56:30",1340684,4.654,32.44,7.839,1.312,-0.813,96.69617,-9.11,-7.813,78.79,0,109.1,13.52,-8.39,354.4
"2016-02-03 00:57:00",1340685,3.833,32.6,11.6,1.514,-1.327,96.69617,-9.11,-7.814,78.73,0,109.1,13.52,-8.39,354.6
"2016-02-03 00:57:30",1340686,4.811,41.88,6.762,1.242,-0.993,96.69617,-9.11,-7.811,78.75,0,109.1,13.53,-8.39,3.9
"2016-02-03 00:58:00",1340687,5.454,38.67,7.572,1.163,-1,96.69646,-9.11,-7.81,78.76,0,109.1,13.53,-8.39,0.7
"2016-02-03 00:58:30",1340688,5.874,40.5,7.518,1.283,-1.121,96.69646,-9.11,-7.79,78.76,0,109.1,13.53,-8.39,2.5
"2016-02-03 00:59:00",1340689,6.135,38.62,6.771,1.292,-1.083,96.69675,-9.11,-7.802,78.79,0,109.1,13.53,-8.39,0.6
"2016-02-03 00:59:30",1340690,5.609,39.55,7.29,1.409,-0.961,96.69675,-9.11,-7.813,78.84,0,109.1,13.53,-8.39,1.5
"2016-02-03 01:00:00",1340691,5.721,36.79,7.571,1.323,-0.707,96.69617,-9.11,-7.81,78.87,0,109.1,13.53,-8.39,358.8
"2016-02-03 01:00:30",1340692,5.823,28.05,8.73,1.582,-0.808,96.69646,-9.11,-7.802,78.88,0,109.1,13.53,-8.39,350.0
"2016-02-03 01:01:00",1340693,4.825,26.62,6.741,1.24,-0.452,96.69617,-9.11,-7.79,78.88,0,109.1,13.53,-8.39,348.6
"2016-02-03 01:01:30",1340694,4.468,29.7,7.331,1.263,-0.959,96.69617,-9.11,-7.794,78.88,0,109.1,13.53,-8.39,351.7
"2016-02-03 01:02:00",1340695,4.532,32.9,7.637,1.31,-1.399,96.69617,-9.11,-7.834,78.81,0,109.1,13.53,-8.39,354.9
"2016-02-03 01:02:30",1340696,4.281,39.53,7.452,1.284,-1.497,96.69646,-9.11,-7.864,78.74,0,109.1,13.53,-8.39,1.5
"2016-02-03 01:03:00",1340697,4.227,46.76,7.724,1.324,-2.266,96.69617,-9.11,-7.889,78.74,0,109.1,13.53,-8.39,8.8
"2016-02-03 01:03:30",1340698,3.913,46.28,9.19,1.052,-2.713,96.69646,-9.11,-7.867,78.78,0,109.1,13.53,-8.39,8.3
"2016-02-03 01:04:00",1340699,4.097,45.26,8.14,1.355,-1.259,96.69703,-9.11,-7.833,78.82,0,109.1,13.53,-8.39,7.3
"2016-02-03 01:04:30",1340700,5.367,46.36,7.676,1.291,-0.862,96.69646,-9.11,-7.833,78.9,0,109.2,13.53,-8.39,8.4
"2016-02-03 01:05:00",1340701,5.116,47.57,6.919,1.257,-0.758,96.69617,-9.11,-7.802,78.9,0,109.1,13.53,-8.39,9.6
"2016-02-03 01:05:30",1340702,3.82,42.39,9.35,1.427,-0.428,96.69617,-9.11,-7.804,78.91,0,109.1,13.53,-8.39,4.4
"2016-02-03 01:06:00",1340703,4.129,36.85,6.731,1.244,-0.902,96.69617,-9.11,-7.795,78.94,0,109.1,13.53,-8.39,358.9
"2016-02-03 01:06:30",1340704,3.807,41.4,7.676,1.297,-1.519,96.69617,-9.11,-7.821,78.91,0,109.1,13.53,-8.39,3.4
"2016-02-03 01:07:00",1340705,3.355,37.47,7.701,1.386,-2.261,96.69617,-9.11,-7.869,78.9,0,109.1,13.53,-8.39,359.5
"2016-02-03 01:07:30",1340706,4.694,39.17,6.284,1.103,-2.89,96.69617,-9.11,-7.9,78.92,0,109.1,13.53,-8.39,1.2
"2016-02-03 01:08:00",1340707,5.43,46.25,8.21,1.514,-0.766,96.69617,-9.11,-7.824,78.98,0,109.1,13.53,-8.39,8.2
"2016-02-03 01:08:30",1340708,3.255,27.92,13.78,1.414,-0.775,96.69617,-9.11,-7.77,78.94,0,109.1,13.53,-8.39,349.9
"2016-02-03 01:09:00",1340709,4.021,31.57,7.273,1.415,-0.904,96.69617,-9.11,-7.804,78.83,0,109.1,13.53,-8.39,353.6
"2016-02-03 01:09:30",1340710,3.941,29.83,10.73,1.435,-1.119,96.69617,-9.11,-7.827,78.74,0,109.1,13.53,-8.39,351.8
"2016-02-03 01:10:00",1340711,4.306,34.49,12.79,1.596,-1.118,96.69617,-9.11,-7.799,78.74,0,109.1,13.53,-8.39,356.5
"2016-02-03 01:10:30",1340712,4.282,32.36,7.426,1.345,-2.422,96.69617,-9.11,-7.937,78.56,0,109.1,13.53,-8.39,354.4
"2016-02-03 01:11:00",1340713,2.776,20.67,14.1,1.442,-2.738,96.69617,-9.11,-7.868,78.63,0,109.1,13.53,-8.39,342.7
"2016-02-03 01:11:30",1340714,4.818,42.38,10.41,1.482,-1.179,96.69617,-9.11,-7.837,78.67,0,109.1,13.53,-8.39,4.4
"2016-02-03 01:12:00",1340715,3.065,31.25,17.04,1.35,-0.937,96.69673,-9.11,-7.829,78.76,0,109.1,13.53,-8.39,353.2
"2016-02-03 01:12:30",1340716,2.999,32.85,12.28,1.346,-1.05,96.69617,-9.11,-7.81,78.8,0,109.1,13.53,-8.39,354.9
"2016-02-03 01:13:00",1340717,3.87,41.98,10.2,1.575,-1.647,96.69645,-9.11,-7.87,78.78,0,109.1,13.53,-8.39,4.0
"2016-02-03 01:13:30",1340718,2.389,29.5,19.07,1.5,-2.708,96.69617,-9.11,-7.852,78.83,0,109.1,13.53,-8.39,351.5
"2016-02-03 01:14:00",1340719,2.891,33.8,6.653,1.213,-3.561,96.69645,-9.11,-7.949,78.6,0,109.1,13.53,-8.39,355.8
"2016-02-03 01:14:30",1340720,4.592,41.68,10.91,1.488,-1.371,96.69645,-9.11,-7.802,78.74,0,109.1,13.53,-8.39,3.7
"2016-02-03 01:15:00",1340721,3.946,33.04,11.78,1.65,-0.936,96.69617,-9.11,-7.795,78.79,0,109.1,13.54,-8.39,355.0
"2016-02-03 01:15:30",1340722,5.503,42.37,7.676,1.341,-0.16,96.69617,-9.11,-7.78,78.83,0,109.1,13.54,-8.39,4.4
"2016-02-03 01:16:00",1340723,6.203,44.68,6.917,1.351,-0.002,96.69673,-9.11,-7.766,78.83,0,109.1,13.54,-8.39,6.7
"2016-02-03 01:16:30",1340724,5.338,33.01,7.04,1.227,-0.168,96.69701,-9.11,-7.765,78.78,0,109.1,13.54,-8.39,355.0
"2016-02-03 01:17:00",1340725,5.094,32.1,8.75,1.355,-0.507,96.69673,-9.11,-7.763,78.71,0,109.1,13.53,-8.39,354.1
"2016-02-03 01:17:30",1340726,3.727,20.21,9.91,1.387,-1.194,96.69673,-9.11,-7.82,78.67,0,109.1,13.54,-8.39,342.2
"2016-02-03 01:18:00",1340727,4.367,40.7,9.16,1.35,-1.229,96.69673,-9.11,-7.8,78.68,0,109.1,13.53,-8.39,2.7
"2016-02-03 01:18:30",1340728,3.386,34.61,8.87,1.221,-2.567,96.69645,-9.11,-7.884,78.6,0,109.1,13.53,-8.39,356.6
"2016-02-03 01:19:00",1340729,2.507,23.79,9,1.395,-3.317,96.69645,-9.11,-7.906,78.67,0,109.1,13.53,-8.39,345.8
"2016-02-03 01:19:30",1340730,4.218,37.32,10.26,1.413,-2.142,96.69673,-9.11,-7.88,78.74,0,109.1,13.54,-8.39,359.3
"2016-02-03 01:20:00",1340731,3.937,43.64,7.687,1.437,-1.157,96.69727,-9.11,-7.832,78.84,0,109.1,13.54,-8.39,5.6
"2016-02-03 01:20:30",1340732,3.869,41.83,6.992,1.271,-1.015,96.697,-9.11,-7.809,78.93,0,109.1,13.54,-8.39,3.8
"2016-02-03 01:21:00",1340733,3.968,33.59,7.695,1.249,-0.944,96.69672,-9.11,-7.816,78.9,0,109.1,13.54,-8.39,355.6
"2016-02-03 01:21:30",1340734,4.501,43.63,6.52,1.285,-1.278,96.69529,-9.11,-7.799,78.89,0,109.1,13.54,-8.39,5.6
"2016-02-03 01:22:00",1340735,4.308,36.02,6.096,1.312,-1.279,96.69358,-9.12,-7.805,78.91,0,109.1,13.54,-8.40,358.0
"2016-02-03 01:22:30",1340736,3.644,29.46,10.35,1.622,-2.385,96.69131,-9.12,-7.913,78.81,0,109.1,13.54,-8.40,351.5
"2016-02-03 01:23:00",1340737,4.189,35.25,9.05,1.317,-1.433,96.68563,-9.14,-7.875,78.89,0,109.1,13.54,-8.42,357.2
"2016-02-03 01:23:30",1340738,3.974,36.37,8.36,1.409,-1.399,96.68417,-9.14,-7.821,78.91,0,109.1,13.54,-8.42,358.4
"2016-02-03 01:24:00",1340739,4.011,40.59,8.5,1.407,-1.081,96.68162,-9.15,-7.84,78.87,0,109.1,13.54,-8.43,2.6
"2016-02-03 01:24:30",1340740,4.274,34.18,7.651,1.202,-0.684,96.67966,-9.15,-7.808,78.85,0,109.1,13.54,-8.43,356.2
"2016-02-03 01:25:00",1340741,4.183,34.86,6.949,1.342,-0.984,96.68102,-9.15,-7.833,78.8,0,109.1,13.54,-8.43,356.9
"2016-02-03 01:25:30",1340742,3.57,37.45,7.913,1.334,-1.203,96.68077,-9.15,-7.809,78.8,0,109,13.54,-8.43,359.5
"2016-02-03 01:26:00",1340743,4.101,32.56,12.34,1.311,-1.82,96.68047,-9.15,-7.859,78.74,0,109.1,13.54,-8.43,354.6
"2016-02-03 01:26:30",1340744,3.746,29.49,9.85,1.422,-2.347,96.67737,-9.16,-7.874,78.79,0,109.1,13.53,-8.44,351.5
"2016-02-03 01:27:00",1340745,4.748,39.62,9.86,1.44,-1.091,96.67538,-9.16,-7.867,78.78,0,109.1,13.53,-8.44,1.6
"2016-02-03 01:27:30",1340746,5.7,41.03,6.854,1.403,-1.311,96.67482,-9.17,-7.866,78.82,0,109.1,13.53,-8.45,3.0
"2016-02-03 01:28:00",1340747,6.29,38.46,7.077,1.356,-0.564,96.67589,-9.16,-7.822,78.83,0,109.1,13.53,-8.44,0.5
"2016-02-03 01:28:30",1340748,6.793,42.2,7.056,1.316,-0.05,96.67665,-9.16,-7.793,78.83,0,109.1,13.53,-8.44,4.2
"2016-02-03 01:29:00",1340749,5.91,46.69,6.946,1.259,-0.136,96.68195,-9.15,-7.784,78.8,0,109.1,13.53,-8.43,8.7
"2016-02-03 01:29:30",1340750,5.455,51.71,7.216,1.208,-0.261,96.68472,-9.14,-7.818,78.76,0,109.1,13.53,-8.42,13.7
"2016-02-03 01:30:00",1340751,4.689,56.82,7.577,1.157,-0.27,96.68526,-9.14,-7.823,78.78,0,109.1,13.53,-8.42,18.8
"2016-02-03 01:30:30",1340752,4.037,58.92,10.39,1.261,-0.552,96.68642,-9.14,-7.813,78.84,0,109.1,13.53,-8.42,20.9
"2016-02-03 01:31:00",1340753,4.741,51.82,7.316,1.231,-0.588,96.68587,-9.14,-7.783,78.9,0,109.1,13.53,-8.42,13.8
"2016-02-03 01:31:30",1340754,5.508,50.06,6.454,1.337,-0.902,96.69146,-9.12,-7.796,78.92,0,109.1,13.53,-8.40,12.1
"2016-02-03 01:32:00",1340755,5.087,45.4,9.2,1.327,-1.214,96.68845,-9.13,-7.802,78.94,0,109.1,13.53,-8.41,7.4
"2016-02-03 01:32:30",1340756,3.984,38.73,8.35,1.272,-1.278,96.68872,-9.13,-7.821,78.92,0,109.1,13.53,-8.41,0.7
"2016-02-03 01:33:00",1340757,3.769,47.47,11.46,1.309,-1.449,96.68898,-9.13,-7.82,78.93,0,109.1,13.53,-8.41,9.5
"2016-02-03 01:33:30",1340758,4.439,46.36,9.31,1.331,-2.914,96.6868,-9.14,-7.943,78.83,0,109.1,13.53,-8.42,8.4
"2016-02-03 01:34:00",1340759,3.453,45.16,9.16,0.671,-4.518,96.68565,-9.14,-8.01,78.82,0,109.1,13.53,-8.42,7.2
"2016-02-03 01:34:30",1340760,4.315,45.1,9.26,1.378,-1.404,96.68791,-9.13,-7.823,78.96,0,109.1,13.53,-8.41,7.1
"2016-02-03 01:35:00",1340761,4.259,42.75,7.098,1.29,-1.151,96.68905,-9.13,-7.859,78.96,0,109.1,13.53,-8.41,4.8
"2016-02-03 01:35:30",1340762,4.314,38.81,11.32,1.303,-0.657,96.69007,-9.13,-7.786,78.99,0,109.1,13.53,-8.41,0.8
"2016-02-03 01:36:00",1340763,4.568,40.63,7.898,1.194,-0.651,96.68925,-9.13,-7.822,78.97,0,109.1,13.53,-8.41,2.6
"2016-02-03 01:36:30",1340764,3.939,40.49,8.64,1.334,-0.968,96.69058,-9.13,-7.816,78.98,0,109.1,13.53,-8.41,2.5
"2016-02-03 01:37:00",1340765,4.092,35.18,8.08,1.316,-1.207,96.69005,-9.13,-7.838,78.98,0,109.1,13.53,-8.41,357.2
"2016-02-03 01:37:30",1340766,3.188,29.64,7.077,1.235,-2.625,96.69199,-9.12,-7.836,78.98,0,109.1,13.53,-8.40,351.6
"2016-02-03 01:38:00",1340767,3.097,34.11,6.53,1.259,-2.809,96.69257,-9.12,-7.966,78.87,0,109.1,13.53,-8.40,356.1
"2016-02-03 01:38:30",1340768,3.606,39.56,7.845,1.256,-1.667,96.69118,-9.12,-7.836,79,0,109.1,13.54,-8.40,1.6
"2016-02-03 01:39:00",1340769,3.416,36.21,10.5,1.289,-0.835,96.68897,-9.13,-7.821,79.04,0,109.1,13.53,-8.41,358.2
"2016-02-03 01:39:30",1340770,3.448,34.25,7.739,1.364,-1.434,96.68836,-9.13,-7.834,79.02,0,109.1,13.54,-8.41,356.2
"2016-02-03 01:40:00",1340771,2.891,38.39,9.04,1.147,-2.402,96.68718,-9.13,-7.929,78.96,0,109.1,13.54,-8.41,0.4
"2016-02-03 01:40:30",1340772,3.087,26.91,8.94,1.702,-2.425,96.68605,-9.14,-7.856,79.03,0,109.1,13.54,-8.42,348.9
"2016-02-03 01:41:00",1340773,3.137,31.36,8.53,1.342,-2.2,96.68379,-9.14,-7.898,79,0,109.1,13.54,-8.42,353.4
"2016-02-03 01:41:30",1340774,4.717,36.75,7.422,1.445,-1.576,96.68375,-9.14,-7.859,79.07,0,109.1,13.54,-8.42,358.8
"2016-02-03 01:42:00",1340775,4.27,36.03,10.77,1.342,-1.165,96.6846,-9.14,-7.843,79.06,0,109.1,13.54,-8.42,358.0
"2016-02-03 01:42:30",1340776,3.789,38.86,9.13,1.214,-1.089,96.6846,-9.14,-7.832,79,0,109.1,13.54,-8.42,0.9
"2016-02-03 01:43:00",1340777,4.69,42.75,8.56,1.428,-1.144,96.68432,-9.14,-7.845,78.95,0,109.1,13.54,-8.42,4.8
"2016-02-03 01:43:30",1340778,4.175,36.4,6.822,1.378,-1.471,96.68398,-9.14,-7.862,78.95,0,109.1,13.53,-8.42,358.4
"2016-02-03 01:44:00",1340779,3.615,28.79,11.94,1.453,-1.343,96.68174,-9.15,-7.894,78.91,0,109.1,13.53,-8.43,350.8
"2016-02-03 01:44:30",1340780,3.582,14.65,12.4,1.388,-2.337,96.68002,-9.15,-7.901,78.91,0,109.1,13.53,-8.43,336.6
"2016-02-03 01:45:00",1340781,3.375,24.6,13.08,1.484,-2.294,96.67918,-9.15,-7.898,78.91,0,109.1,13.53,-8.43,346.6
"2016-02-03 01:45:30",1340782,3.41,9.54,11.54,1.429,-1.858,96.67722,-9.16,-7.829,78.94,0,109.1,13.53,-8.44,331.5
"2016-02-03 01:46:00",1340783,2.739,22.82,8.04,1.399,-2.383,96.67941,-9.15,-7.924,78.82,0,109.1,13.53,-8.43,344.8